Terug naar catalogus

HULIANWANG DIGUI-127

ActiefCommunicatieLEO
NORAD 67067·PAYLOAD·🇨🇳 China

Gelanceerd Dec 11, 2025 vanaf Wenchang Space Launch Site

Loading…

Volgende Passages (komende 24 uur)

TLE

VersSource: Space-Track

Epoch: Sep 13, 2026, 22:50 UTC

1 67067U 25295J   26256.95174424 -.00000117  00000-0  14809-4 0  9992
2 67067  50.0006  66.7691 0000804  58.4005 301.6945 13.29324212 37319

Volg HULIANWANG DIGUI-127 in realtime met AllMySat

Download on the App Store